Погода в Уюке

Погода в Уюке : погода сейчас, прогноз погоды и архив. Всё, что Вы хотите узнать о погоде в Уюке!

Поиск расширенной информации на нашем сайте:

Другие новости

Новости СМИ2

Главная страница сайта

Новости сайта

02.10.2013

Напоминаем, что на нашем новом сайте вы можете получить высокодетализированные прогнозы погоды по пунктам России, СНГ и мира (включающие важные для авиации метеовеличины, такие как направление и скорость ветра, видимость, явления погоды, количество и форма облачности, нижняя и верхняя граница облачности), а также ознакомиться с разнообразными материалами по авиационной метеорологии и подборкой полезных ссылок на эту тему.

Сайт Метеоцентр.Азия посвящён разработке технологий оптимизации авиаметеорологического обслуживания, включая проектирование и перспективное создание нескольких автоматизированных авиаметеорологических систем:
- система выпуска высокодетальных прогностических карт явлений погоды для нижнего воздушного пространства по России и ближнему зарубежью;
- система верификации прогнозов TAF (выпускаемых синоптиками официальных АМСГ РФ и ближнего зарубежья) и AUTOTAF (выпускаемых сайтом Метеоцентр.Азия) - выявление ошибок, онлайн-сопоставление с фактической погодой METAR, автоматическое внесение коррективов в прогнозы при резком отклонении фактической погоды от прогноза, подсчёт оправдываемости прогнозов по элементам и в целом;
- система обработки, анализа и отображения авиаметеорологической информации для применения провайдерами метеорологической информации.

Рекомендуем: мольберт детский

Погода в Уюке - сегодня

Время (UTC), дата Ветер
(°,м/с) 
Видим.   Явления Облачность Т
(°С)
Тd
(°С)
f(%) Тe
(°С)
Pmin
(гПа)
dP
(гПа)
Po
(мм)
O2
(г/м3)
Тmin Tmax R s Состояние
почвы
09 24.04.17 030 (СВ) 20000 м    4/0 верхняя 
[Ci sp]
+25.2 +5.5 28 +25  1017.3  -1.7  731  269           
12 24.04.17 090 (В) 20000 м    6/0 верхняя 
[Ci sp]
+25.8 +4.3 25 +26  1015.7  -1.5  723  265           
15 24.04.17 100 (В) 20000 м    3/0 верхняя 
[Ci sp]
+20.8 +7.4 42 +21  1016.3  -0.1  730  272    +26       
18 24.04.17 090 (В) 20000 м    3/0 верхняя 
[Ci sp]
+16.3 +6.5 52 +17  1017.1  730  276    +26       
21 24.04.17 070 (В) 20000 м    ясно 
+14.4 +6.1 57 +15  1016.6  -0.5  730  278           
00 25.04.17 090 (В) 20000 м    ясно 
+11 +4.3 63 +12  1016  -1.3  729  282           
06 25.04.17 090 (В) 20000 м    ясно 
+23.2 +8.9 40 +24  1013.6  -0.9  728  269           
09 25.04.17 100 (В) 20000 м    ясно 
+27.4 +5.9 25 +27  1012  -1  728  265           
12 25.04.17 тихо ()   20000 м    ясно 
+29.1 +5.5 22 +29  1010.4  -1.2  727  264           
15 25.04.17 тихо ()   20000 м    ясно 
+24.6 +10.6 41 +27  1011.3  0.2  727  267    +29.8       
18 25.04.17 140 (ЮВ) 20000 м    ясно 
+18.9 +7.3 47 +20  1013.1  728  273    +29.8       
21 25.04.17 тихо ()   20000 м    ясно 
+16.2 +6.7 53 +16  1014.2  0.6  728  276           
00 26.04.17 тихо ()   20000 м    ясно 
+12.7 +5.9 63 +13  1013.2  -1.5  727  279           
06 26.04.17 050 (СВ) 20000 м    ясно 
+22.3 +8.1 40 +22  1012.9  0.1  728  270           
09 26.04.17 250 (З) 20000 м    ясно 
+28.6 +7.6 27 +29  1012.3  0.2  728  264           
12 26.04.17 270 (З) 20000 м    ясно 
+28.9 +6.5 24 +29  1012  -0.3  728  264           
15 26.04.17 250 (З) 20000 м    ясно 
+21.4 +8.2 43 +21  1013.5  0.5  728  271    +29.3       
18 26.04.17 270 (З) 20000 м    ясно 
+17.3 +6.8 50 +18  1015.4  1.1  729  275    +29.3       
21 26.04.17 290 (З) 20000 м    ясно 
+14.7 +5.6 54 +16  1016.2  0.5  729  278           
00 27.04.17 320 (СЗ) 20000 м    4/0 верхняя 
[Ci sp]
+12.4 +5.8 64 +12  1019.7  2.8  731  281           
06 27.04.17 340 (С) 20000 м    4/0 верхняя 
[Ci sp]
+17.1 +5.6 47 +17  1022.4  734  277           
09 27.04.17 340 (С) 20000 м    9/0 средняя 
[Ac lent]
+18.6 +2.3 34 +19  1022.7  0.5  734  277           
12 27.04.17 340 (С) 20000 м    10/10 600 м кучево-дожд. 
[Cb cap]
+12.4 +4.5 59 +12  1026.5  2.6  736  283           
21 27.04.17 280 (З) 20000 м    10/10 1000 м 
[Sc]
+9.2 +6.2 81 +10  1027.8  -0.4  737  286           
00 28.04.17 260 (З) 20000 м    10/10 1000 м 
[Sc]
+8.9 +5.3 78 +10  1028  0.2  737  287           
Время (UTC), дата Ветер
(°,м/с) 
Видим.   Явления Облачность Т
(°С)
Тd
(°С)
f(%) Тe
(°С)
Pmin
(гПа)
dP
(гПа)
Po
(мм)
O2
(г/м3)
Тmin Tmax R s Состояние
почвы

Для получения пояснительной информации подведите курсор к названию столбца.

ПОГОДА в Уюке - архив

Всё, что Вы хотите узнать о погоде в Уюке - удобно и подробно!

Выберите нужную дату (начиная с 1 января 2015* года) и нажмите кнопку "Найти".
Будут отображены архивные сводки погоды по пункту Уюк, начиная с указанной даты.


Отображать данные в формате CSV (для использования в таблицах Excel)


Внимание! Наш архив погоды предназначен исключительно для личного некоммерческого использования в познавательных целях. Если Вам необходимы официальные справки о состоянии погоды (для производственных, юридических, коммерческих и т.п. целей), обращайтесь в органы Росгидромета.

*Примечание: данная дата относится к архиву по метеостанциям СССР (Россия, СНГ, Балтия).
Архив по метеостанциям Зарубежной Европы и Азии (кроме Китая) хранится 10 дней, по другим регионам земного шара (Китай, Африка, Америка, Австралия, Океания) - 1 день.

Уюк - район местоположения метеостанции


Название, широта, долгота, высота метеостанции:
Уюк 43.8°ш. 70.9°д. 366 м над ур. моря [Казахстан]

Дополнительная информация

В oтличие oт бoльшинства пoгoдных сайтoв мы публикуем пoдрoбную метеoинфoрмацию в детальнoм прoфессиoнальнoм фoрмате.

Характеристики температуры и влажнoсти вoздуха измеряются на высoте 2 м в тени вдали oт зданий и деревьев.
Скoрoсть ветра измеряется на высoте 10 м (на урoвне рoста челoвека скoрoсть ветра ниже в 1.5-2 раза). Если метеoстанция нахoдится в гoрoде или в лесу, тo скoрoсть ветра занижена на 2-4 м/с пo сравнению с oткрытым местoм. Скoрoсть ветра над акватoриями крупных рек и oзёр, а также на вершинах хoлмoв на 2-5 м/с выше, чем в oбычных услoвиях.
Атмoсфернoе давление в разных тoчках местнoсти мoжет значительнo oтличаться oт давления на метеoстанции, в зависимoсти oт услoвий рельефа (при пoдъёме на 10 м давление пoнижается примернo на 1 мм рт.ст.).